Location: Doussal
(55.6167°N, 116.8333°W)
Time: 06:02:20
(UTC+00:00)

METEOR M2 - Pass Details

Date: 13 December 2023
Orbit: 818 x 826 km, 98.4° (Epoch: 25 February)

Event Time Altitude Azimuth Distance (km) Brightness Sun altitude
Rises 14:01:24 0° 15° (NNE) 3,374 ? -16.2°
Reaches altitude 10° 14:03:46 10° 16° (NNE) 2,435 ? -15.9°
Maximum altitude 14:09:11 89° 104° (ESE) 830 ? -15.2°
Drops below altitude 10° 14:14:33 10° 198° (SSW) 2,414 ? -14.5°
Sets 14:16:53 0° 198° (SSW) 3,341 ? -14.2°
